ARIANE 5 DEB (SYLDA), 42743

Orbit data source: Space-Track

ARIANE 5 DEB (SYLDA), 42743 is space debris in HEO originally from a launch on Thu, 01 Jun 2017 UTC launched from the French Guiana (FRGUI). Debris objects in space refer to the collection of defunct objects orbiting the Earth. Examples of debris include non-operational satellites, rocket bodies, and fragments generated from explosions, collisions, or faulty payload assembly.

Loading next visibility...
Identifier
42743, 2017-029D
Orbit
HEO
Country
Flag of FRFR
Related business
Manufacturer
ADS/Bremen
Mission
Spacecraft
Bus & Motor
SYLDA 5, Unknown motor
Mass
440 kg wet, 440 kg dry
Launch date (UTC)
2017-06-01 (8 years ago)
Launch vehicle
Unknown
Launch site
French Guiana (FRGUI)
Object type
Payload
Rocket body
Debris
Shape & HBR
Cyl, 2.8 m
Radar Cross Section
27.391 m², Large (>1 m²)

Expand to show TLE details & history
Last TLE update: 1 day ago

TLE from 1 day ago
0 ARIANE 5 DEB (SYLDA)
1 42743U 17029D   25259.73543656  .00013399  00000-0  50475-2 0  9999
2 42743   6.2393  25.9803 6495259 241.0387  40.0974  3.30045155 79643
Epoch: 2025-09-16T17:39Z
TLE epoch observation values (Epoch: 2025-09-16T17:39:01.718Z)
Latitude
0.00001°
Longitude
125.35412°
Altitude
9,716.608 km
Speed
5.349 km/s
True Right ascension
01h 44m 07s
True Declination
0° 00' 00"
Sunlit
Object was in daylight at epoch
Visualization orbit readout
Latitude
Unknown
Longitude
Unknown
Altitude
Unknown
Speed
Unknown
Apparent Right ascension
Unknown
Apparent Declination
Unknown
Sunlit
N/A
Visualization observer readout
Local Sidereal Time
11:44:03
Azimuth
Unknown
Elevation
Unknown
Doppler factor
Unknown
Orbital elements
Apogee altitude
25,062.89 km
Perigee altitude
302.125 km
Semi-major axis
19,060.645 km
Eccentricity
0.64953
Inclination
6.2393°
RAAN
25.9803°
Arg. of periapsis
241.0387°
True anomaly
119.14123°
Mean anomaly
40.0974°
Eccentric anomaly
76.24525°
Mean motion
0.82478 °/min
Orbital period
436.48 mins
BSTAR
0.0050475
Loading maneuver chart data...
Computing Atmospheric mass density...
Loading historical data...
Loading historical data...
Loading historical data...
Loading historical data...
Loading historical data...
Loading historical data...
Loading historical data...
Other satellites on launch #29 in the year 2017 (2017-06-01 UTC)

Documentation

Showing up to 5 results
|